This demonstration page uses our WeatherBlox Daily Observations layout. Learn more.

Left ArrowRight Arrow

Hourly Observations for May 28, 2016

Temp ( °F °C ) Dew Point ( °F °C ) Humidity (%) Winds ( mph kmh ) Pressure ( in mb ) Visibility ( mi km ) Precip ( " mm )
12:51 am 00:51 Clear 65 18.3 23 -5 20 20 Calm 29.75 1008 10 16 0.00 0.00
1:51 am 01:51 Clear 59 15 22 -5.6 24 24 SE 5 7 29.76 1008 10 16 0.00 0.00
2:51 am 02:51 Clear 60 15.6 22 -5.6 23 23 Calm 29.76 1008 10 16 0.00 0.00
3:51 am 03:51 Clear 55 12.8 21 -6.1 26 26 E 3 6 29.77 1008 10 16 0.00 0.00
4:51 am 04:51 Clear 54 12.2 21 -6.1 28 28 S 5 7 29.78 1009 10 16 0.00 0.00
5:51 am 05:51 Sunny 55 12.8 21 -6.1 26 26 ESE 3 6 29.81 1009 10 16 0.00 0.00
6:51 am 06:51 Sunny 62 16.7 23 -5 22 22 SSE 7 11 29.81 1010 10 16 0.00 0.00
7:51 am 07:51 Sunny 74 23.3 25 -3.9 16 16 E 12 19 29.80 1009 10 16 0.00 0.00
8:51 am 08:51 Sunny 77 25 27 -2.8 16 16 ESE 10 17 29.80 1009 10 16 0.00 0.00
9:51 am 09:51 Sunny 80 26.7 26 -3.3 14 14 SSE 8 13 29.79 1009 10 16 0.00 0.00
10:51 am 10:51 Sunny 84 28.9 24 -4.4 11 11 S 8 13 29.78 1008 10 16 0.00 0.00
11:51 am 11:51 Sunny 88 31.1 21 -6.1 8 8 S 10 17 29.76 1008 10 16 0.00 0.00
12:51 pm 12:51 Sunny 89 31.7 19 -7.2 7 7 SSE 10 17 29.74 1007 10 16 0.00 0.00
1:51 pm 13:51 Sunny 89 31.7 18 -7.8 7 7 Calm 29.73 1007 10 16 0.00 0.00
2:51 pm 14:51 Sunny 90 32.2 17 -8.3 7 7 VRB 3 6 29.70 1006 10 16 0.00 0.00
3:51 pm 15:51 Sunny 92 33.3 16 -8.9 6 6 ESE 6 9 29.69 1005 10 16 0.00 0.00
4:51 pm 16:51 Sunny 92 33.3 5 -15 4 4 S 15 24 29.68 1005 10 16 0.00 0.00
5:51 pm 17:51 Sunny 91 32.8 9 -12.8 4 4 SSW 9 15 29.68 1005 10 16 0.00 0.00
6:51 pm 18:51 Sunny 89 31.7 10 -12.2 5 5 SE 6 9 29.68 1005 10 16 0.00 0.00
7:51 pm 19:51 Clear 83 28.3 12 -11.1 7 7 S 3 6 29.69 1005 10 16 0.00 0.00
8:51 pm 20:51 Clear 75 23.9 11 -11.7 8 8 Calm 29.73 1007 10 16 0.00 0.00
9:51 pm 21:51 Clear 79 26.1 13 -10.6 8 8 NW 14 22 29.75 1008 10 16 0.00 0.00
10:51 pm 22:51 Clear 76 24.4 14 -10 9 9 NNW 14 22 29.77 1008 10 16 0.00 0.00
11:51 pm 23:51 Clear 75 23.9 17 -8.3 11 11 NNW 9 15 29.78 1008 10 16 0.00 0.00

Powered by AerisWeather